ONEWEB-0658, 55819

Orbit data source: Space-Track

ONEWEB-0658, 55819 is a payload satellite owned by One Web (NAA) (UK) in LEO that was launched on Thu, 09 Mar 2023 UTC via an FALCON 9 launch vehicle from the Air Force Eastern Test Range (AFETR). Payload-class satellites include a variety of spacecraft equipped with specific instruments for various scientific and technological missions. These include communications satellites like Starlink; space stations such as the ISS; scientific satellites like the Hubble; Earth observation satellites from companies like Planet Labs, Umbra, and HawkEye 360; GPS; miniature CubeSats for education and research; and military/defense satellites.

Loading next visibility...
Identifier
55819, 2023-029Z
Orbit
LEO
Country
Flag of UKUK
Related business
Manufacturer
One Web
Mission
Operational Commercial Communications
Bus & Motor
ARROW, Unknown motor
Mass
148 kg wet, ~140 kg dry
Launch date (UTC)
2023-03-09 (3 years ago)
Launch vehicle
FALCON 9
Launch site
Air Force Eastern Test Range (AFETR)
Object type
Payload
Rocket body
Debris
Shape & HBR
Trap Box + 2 Pan, 6.7 m
Radar Cross Section
3.464 m², Large (>1 m²)

Expand to show TLE details & history
Last TLE update: 2 days ago

TLE from 2 days ago
0 ONEWEB-0658
1 55819U 23029Z   26171.40418904  .00000121  00000-0  26979-3 0  9991
2 55819  87.9182 304.3091 0001780 112.2140 247.9181 13.19724886159345
Epoch: 2026-06-20T09:42Z
TLE epoch observation values (Epoch: 2026-06-20T09:42:01.933Z)
Latitude
-0.00007°
Longitude
-109.81826°
Altitude
1,189.179 km
Speed
7.259 km/s
True Right ascension
20h 17m 14s
True Declination
0° 00' 00"
Sunlit
Object was in full shadow at epoch
Visualization orbit readout
Latitude
Unknown
Longitude
Unknown
Altitude
Unknown
Speed
Unknown
Apparent Right ascension
Unknown
Apparent Declination
Unknown
Sunlit
N/A
Visualization observer readout
Local Sidereal Time
21:37:40
Azimuth
Unknown
Elevation
Unknown
Doppler factor
Unknown
Orbital elements
Apogee altitude
1,184.223 km
Perigee altitude
1,181.531 km
Semi-major axis
7,561.014 km
Eccentricity
0.00018
Inclination
87.9182°
RAAN
304.3091°
Arg. of periapsis
112.214°
True anomaly
247.8992°
Mean anomaly
247.9181°
Eccentric anomaly
247.90865°
Mean motion
3.30121 °/min
Orbital period
109.05 mins
BSTAR
0.00026979
Loading maneuver chart data...
Computing Atmospheric mass density...
Loading historical data...
Loading historical data...
Loading historical data...
Loading historical data...
Loading historical data...
Loading historical data...
Loading historical data...

Documentation

Showing up to 5 results
|